Minot, ND

8:16 AM CDT on April 28, 2017 (GMT -0500)
Minot International

Weather History for KMOT - May, 2013

Change the Weather History Date:

Monday, May 6, 2013

  Actual Average Record
Temperature  
Mean Temperature 60 °F 52 °F  
Max Temperature 74 °F 64 °F 88 °F (1992)
Min Temperature 46 °F 40 °F 15 °F (1931)
Degree Days  
Heating Degree Days 6    
Cooling Degree Days 0 0  
Month to date cooling degree days 0 0  
Year to date cooling degree days 0 1  
Growing Degree Days 9 (Base 50)    
Moisture  
Dew Point 28 °F    
Average Humidity 35    
Maximum Humidity 53    
Minimum Humidity 17    
Precipitation  
Precipitation 0.00 in 0.07 in 1.85 in (1964)
Month to date precipitation 0.00 0.39  
Year to date precipitation 1.62 3.28  
Sea Level Pressure  
Sea Level Pressure 30.05 in    
Wind  
Wind Speed 6 mph (SSW)    
Max Wind Speed 15 mph    
Max Gust Speed 20 mph    
Visibility 10 miles    
Events      
T = Trace of Precipitation, MM = Missing Value Source: NWS Daily Summary

Daily Weather History Graph

Daily Weather History Graph

Search for Another Location

Airport or City:

Trip Planner

Search our weather history database for the weather conditions in past years. The results will help you decide how hot, cold, wet, or windy it might be!

Date:

Astronomy

May. 06, 2013 Rise Set
Actual Time 6:17 AM CDT 9:06 PM CDT
Civil Twilight 5:42 AM CDT 9:42 PM CDT
Nautical Twilight 4:56 AM CDT 10:28 PM CDT
Astronomical Twilight 4:01 AM CDT 11:23 PM CDT
Moon 4:36 AM CDT (5/6) 5:56 PM CDT (5/6)
Length of Visible Light 16h 00m
Length of Day
14h 48m
Waning Crescent, 11% of the Moon is Illuminated
May 6
Waning Crescent
May 9
New
May 17
First Quarter
May 24
Full
May 31
Last Quarter

Hourly Weather History & Observations

Time (CDT) Temp. Dew Point Humidity Pressure Visibility Wind Dir Wind Speed Gust Speed Precip Events Conditions
12:54 AM 46.9 °F 30.9 °F 54% 30.12 in 10.0 mi South 6.9 mph - N/A   Clear
1:54 AM 48.9 °F 30.0 °F 48% 30.12 in 10.0 mi South 9.2 mph - N/A   Clear
2:54 AM 48.0 °F 30.0 °F 50% 30.10 in 10.0 mi WSW 8.1 mph - N/A   Clear
3:54 AM 48.0 °F 28.9 °F 48% 30.09 in 10.0 mi SW 10.4 mph - N/A   Clear
4:54 AM 48.0 °F 28.0 °F 46% 30.08 in 10.0 mi SW 9.2 mph - N/A   Clear
5:54 AM 46.9 °F 28.0 °F 48% 30.08 in 10.0 mi SW 10.4 mph - N/A   Clear
6:54 AM 46.9 °F 28.0 °F 48% 30.09 in 10.0 mi SW 10.4 mph - N/A   Clear
7:54 AM 50.0 °F 28.9 °F 44% 30.09 in 10.0 mi SSW 9.2 mph - N/A   Clear
8:54 AM 57.0 °F 30.0 °F 36% 30.09 in 10.0 mi SW 5.8 mph - N/A   Clear
9:54 AM 64.0 °F 28.9 °F 27% 30.09 in 10.0 mi West 9.2 mph - N/A   Clear
10:54 AM 66.9 °F 28.0 °F 23% 30.09 in 10.0 mi WSW 6.9 mph - N/A   Clear
11:54 AM 66.9 °F 26.1 °F 21% 30.08 in 10.0 mi SW 3.5 mph - N/A   Clear
12:54 PM 70.0 °F 27.0 °F 20% 30.07 in 10.0 mi Variable 3.5 mph - N/A   Clear
1:54 PM 71.1 °F 26.1 °F 19% 30.06 in 10.0 mi East 6.9 mph - N/A   Clear
2:54 PM 72.0 °F 25.0 °F 17% 30.04 in 10.0 mi North 4.6 mph - N/A   Clear
3:54 PM 72.0 °F 26.1 °F 18% 30.02 in 10.0 mi Variable 5.8 mph - N/A   Clear
4:54 PM 72.0 °F 26.1 °F 18% 30.00 in 10.0 mi Variable 4.6 mph - N/A   Clear
5:54 PM 72.0 °F 25.0 °F 17% 29.99 in 10.0 mi SSW 4.6 mph - N/A   Clear
6:54 PM 72.0 °F 26.1 °F 18% 29.98 in 10.0 mi Calm Calm - N/A   Clear
7:54 PM 70.0 °F 28.0 °F 21% 29.97 in 10.0 mi ESE 6.9 mph - N/A   Clear
8:54 PM 64.9 °F 26.1 °F 23% 29.97 in 10.0 mi ESE 3.5 mph - N/A   Clear
9:54 PM 59.0 °F 30.9 °F 35% 29.99 in 10.0 mi SE 6.9 mph - N/A   Clear
10:54 PM 55.0 °F 32.0 °F 42% 29.99 in 10.0 mi SE 5.8 mph - N/A   Clear
11:54 PM 53.1 °F 33.1 °F 47% 29.99 in 10.0 mi SSE 4.6 mph - N/A   Clear